Location: Bergen
(48.4395°N, 11.2138°E)
Time: 05:02:01
(UTC+00:00)

Daily predictions for brighter satellites

Satellite Brightness Start Highest point End
(mag) Time Altitude Azimuth Time Altitude Azimuth Time Altitude Azimuth
Cosmos 1825 3.2 00:04:51 26° WSW 00:05:48 31° WNW 00:08:55 10° N
SL-4 R/B 3.5 00:04:20 10° W 00:06:38 22° WSW 00:06:38 22° WSW
Cosmos 2154 Rocket 4.1 00:07:15 26° SSW 00:10:52 67° WNW 00:17:09 10° N
SL-12 R/B(2) 4.4 00:07:46 21° SW 00:13:44 85° SE 00:23:40 10° NE
Cosmos 2297 Rocket 3.4 00:09:02 12° WSW 00:13:46 36° NW 00:18:59 10° NNE
Cosmos 2327 Rocket 4.4 00:11:00 27° S 00:14:33 85° E 00:20:41 10° N
Okean 1 Rocket 4.0 00:10:37 10° NNW 00:14:34 35° W 00:16:03 27° SW
NOSS 3-2 (A) 3.3 00:12:23 29° SSW 00:15:02 64° SE 00:21:07 10° NE
Meteor 1-21 Rocket 4.2 00:12:01 28° SSW 00:15:13 87° W 00:20:56 10° N
Cosmos 923 Rocket 4.2 00:10:39 10° NNW 00:15:56 69° ENE 00:20:13 15° SSE
Cosmos 2219 3.1 00:14:01 28° SSW 00:17:08 86° ESE 00:22:47 10° NNE
ADEOS II 4.4 00:15:17 10° NE 00:18:16 15° E 00:21:14 10° ESE
Aureole 1 Rocket 2.7 00:17:04 39° S 00:18:21 79° ESE 00:22:49 10° NNE
NOSS 3-2 (C) 4.1 00:19:18 22° SSE 00:21:50 34° ESE 00:27:11 10° NE
Cosmos 1937 Rocket 4.0 00:19:39 25° SSE 00:22:27 49° ESE 00:27:31 10° NNE
Cosmos 2228 4.3 00:19:46 10° N 00:23:49 37° ENE 00:27:21 13° SE
Cosmos 1544 Rocket 4.2 00:20:50 10° N 00:25:12 51° ENE 00:28:20 18° SSE
Cosmos 1898 Rocket 3.5 00:24:22 28° S 00:27:06 72° ESE 00:32:16 10° NNE
SL-8 Rocket 4.2 00:23:20 22° S 00:27:24 66° E 00:33:33 10° NNE
Cosmos 1606 2.8 00:28:01 10° N 00:31:35 63° E 00:33:25 26° SSE
H-2A R/B 3.7 00:30:02 10° N 00:33:26 23° WNW 00:35:54 14° WSW
Resurs 1-4 Rocket 3.5 00:29:14 10° NNE 00:33:54 31° E 00:37:56 13° SSE
Cosmos 1975 Rocket 3.1 00:37:42 29° SSW 00:39:49 69° W 00:44:14 10° N
Meteor 2-1 Rocket 4.3 00:36:09 10° NNW 00:42:05 76° W 00:46:09 21° S
Cosmos 292 Rocket 3.9 00:40:12 26° SW 00:42:52 66° WNW 00:47:41 10° NNE
Cosmos 2263 Rocket 2.2 00:42:06 24° SSW 00:45:36 82° WNW 00:51:13 10° NNE
BlueWalker 3 3.4 00:45:43 10° WNW 00:49:15 38° N 00:52:47 10° ENE
Orbus 7S? 2.8 00:47:20 10° NW 00:50:02 83° NE 00:54:03 10° SE
BREEZE-M DEB (TANK) 4.4 00:46:48 10° W 00:50:21 81° N 01:02:00 10° E
Cosmos 1455 Rocket 4.0 00:47:01 10° NNW 00:51:02 34° W 00:52:57 24° SW
Cosmos 921 Rocket 4.5 00:53:23 10° N 00:57:19 36° ENE 01:01:11 10° SE
Cosmos 1680 Rocket 3.4 00:52:40 10° NNW 00:57:52 74° WSW 01:02:17 14° SSE
Cosmos 2112 Rocket 3.9 00:55:16 10° NNW 01:00:29 82° WSW 01:05:24 11° SSE
Cosmos 2341 Rocket 4.1 00:56:40 21° SSW 01:00:56 69° WNW 01:07:10 10° N
Helios 1A Rocket 3.6 01:02:09 25° SW 01:03:32 33° W 01:07:01 10° NNW
Cosmos 1818 3.7 00:58:37 10° NW 01:03:59 57° WSW 01:09:17 10° SSE
USA 234 4.4 00:58:21 10° E 01:04:32 47° NNE 01:10:44 10° WNW
Cosmos 1844 Rocket 3.9 01:00:50 13° SSE 01:05:10 34° ESE 01:10:07 10° NE
Meteor 1-27 4.5 01:00:19 10° N 01:06:11 75° ENE 01:11:57 10° SSE
Cosmos 1461 2.7 01:06:44 24° SW 01:09:03 83° NW 01:12:56 10° NE
Cosmos 1536 Rocket 3.8 01:06:18 19° S 01:09:27 68° E 01:13:52 10° NNE
COBE Rocket 4.2 01:12:24 10° N 01:17:31 65° WNW 01:21:15 19° SSW
CENTAUR R/B 3.4 01:12:03 10° WSW 01:17:51 47° NW 01:25:01 10° NE
IDEFIX/ARIANE 42P 2.6 01:16:19 10° NNE 01:21:37 84° WNW 01:25:41 17° SSW
Meteor 1-28 Rocket 4.3 01:20:08 10° SE 01:23:28 41° ENE 01:26:50 10° N
SL-16 R/B 3.6 01:19:53 10° NW 01:24:02 21° W 01:26:33 16° SW
USA 238 DEB 3.9 01:23:02 16° SSW 01:27:54 56° ESE 01:34:27 10° NE
USA 238 3.9 01:23:04 16° SSW 01:27:56 56° ESE 01:34:30 10° NE
Cosmos 1869 4.3 01:25:00 10° NNW 01:28:09 27° W 01:29:52 19° SW
Cosmos 1603 3.7 01:23:44 10° NNW 01:29:31 84° WSW 01:35:15 10° SSE
CZ-2C R/B 3.3 01:24:54 10° NNE 01:30:22 73° ESE 01:34:59 13° S
MSX 3.8 01:25:20 10° NNE 01:31:05 84° WNW 01:35:59 15° SSW
Cosmos 1821 Rocket 4.0 01:26:29 15° S 01:31:42 84° W 01:37:55 10° N
Cosmos 1607 4.2 01:25:47 10° NW 01:32:15 77° NE 01:38:34 10° SE
ASTEX 1 3.9 01:27:55 10° SSE 01:32:40 59° E 01:37:27 10° N
Cosmos 1048 Rocket 4.4 01:28:39 10° NNW 01:33:52 68° ENE 01:39:07 10° SSE
Cosmos 2218 Rocket 4.4 01:31:20 16° SW 01:36:11 49° WNW 01:42:11 10° N
CZ-2C R/B 2.7 01:32:03 11° S 01:37:04 61° W 01:42:26 10° NNW
CZ-2D R/B 2.1 01:31:45 10° NNE 01:37:09 87° WNW 01:41:46 14° SSW
CZ-4C R/B 4.5 01:33:16 10° WNW 01:37:28 22° NNW 01:42:30 10° NE
Cosmos 2227 Rocket 4.2 01:34:16 10° W 01:38:22 20° NW 01:42:29 10° N
Cosmos 1943 3.5 01:33:05 10° NW 01:38:27 47° WSW 01:43:46 10° S
Cosmos 1437 Rocket 2.6 01:35:32 16° SSW 01:38:28 85° W 01:42:16 10° N
Cosmos 1900 4.5 01:34:55 16° SW 01:39:02 79° NW 01:44:09 10° NE
FENGYUN 3A 3.8 01:37:26 10° NNE 01:42:50 72° ESE 01:48:12 10° S
Iridium 2 4.3 01:43:45 10° SSE 01:45:58 30° E 01:48:13 10° NNE
Cosmos 494 Rocket 4.0 01:42:17 10° NNW 01:47:31 71° WSW 01:52:44 10° SSE
Cosmos 1867 3.7 01:47:41 14° SSW 01:52:26 78° SE 01:57:56 10° NE
Cosmos 2058 Rocket 4.0 01:51:42 10° N 01:56:02 50° ENE 02:00:18 10° SSE
UNK 4.3 01:51:47 10° SSE 01:56:19 61° ENE 02:00:51 10° N
NPP 4.2 01:51:13 10° N 01:56:23 47° WNW 02:01:12 12° SW
Alouette 2 Rocket 4.2 01:53:01 10° S 01:57:25 48° E 02:00:57 10° NNE
ADEOS II 2.1 01:53:17 10° NNE 01:58:34 84° WNW 02:03:48 10° SSW
Cosmos 1892 Rocket 3.9 01:54:23 10° S 01:58:43 65° E 02:03:08 10° NNE
Cosmos 2228 4.4 01:57:27 10° NW 02:00:53 23° W 02:03:54 12° SW
AQUA 3.8 01:56:16 10° NNE 02:01:02 86° ESE 02:05:45 10° SSW
SL-24 DEB 4.2 01:56:47 10° N 02:01:22 81° W 02:05:57 10° S
Iridium 4 Rocket 4.1 01:57:32 10° N 02:01:52 50° E 02:06:30 10° SSE
Cosmos 2123 Rocket 4.0 01:59:44 10° N 02:05:57 87° W 02:12:10 10° S
USA 81 4.3 02:01:36 10° N 02:06:54 76° E 02:12:09 10° S
SL-16 R/B 2.6 02:02:48 10° S 02:09:02 71° WSW 02:15:17 10° NNW
Cosmos 1934 Rocket 4.2 02:02:49 10° S 02:09:11 83° E 02:15:35 10° N
ALOS 2.4 02:04:35 10° NNE 02:09:14 77° ESE 02:13:50 10° S
USA 267 3.8 02:04:22 10° ENE 02:10:43 51° SE 02:17:02 10° SSW
NOSS 3-2 (C) 3.9 02:07:03 10° WSW 02:12:21 53° NW 02:18:42 10° NE
Resurs 1-4 Rocket 2.8 02:08:51 10° N 02:13:49 43° WNW 02:18:46 10° SW
Cosmos 1833 Rocket 4.4 02:09:21 10° NNW 02:14:36 37° NE 02:19:49 10° ESE
ATLAS 5 CENTAUR R/B 3.4 02:16:01 10° SSE 02:17:48 14° ESE 02:19:37 10° E
Cosmos 1844 3.8 02:14:21 10° SSW 02:20:08 80° WNW 02:25:59 10° NNE
Cosmos 1812 2.5 02:20:32 10° NNW 02:24:05 64° W 02:27:37 10° S
Cosmos 1544 3.3 02:22:48 10° S 02:25:18 43° E 02:27:49 10° NNE
BlueWalker 3 2.5 02:24:07 10° WNW 02:27:50 61° NNE 02:31:33 10° ESE
Cosmos 2263 Rocket 4.1 02:26:28 10° W 02:30:25 19° NW 02:34:22 10° N
SAR-Lupe-4 3.6 02:30:49 10° N 02:34:22 71° WNW 02:37:54 10° SSW
Cosmos 921 Rocket 4.1 02:31:53 10° NW 02:35:19 24° W 02:38:42 10° SSW
